"Pseudo-MPEC" for P10Lezz

Created 2019 Jan 13 15:18:15 UT using Find_Orb

Click here for an explanation of pseudo-MPECs

 
 Astrometry: 
     P10Lezz  C2019 01 08/KRAstrometry9vnr1!n`y6OIuM(ik*?weDA.FUIU[UI1IACK6)JF51
     P10Lezz  C2019 01 08^(]B5-FVomfrHGMK2wm/redacted;H]8Lc$E?dkWlOyHdaotVb:)F51
     P10Lezz  C2019 01 08]]UtP'7T'Wrr4?GhgeO\:_xTh=pE-DRD[.r15/f@85/W6wEVL[peF51
     P10Lezz  C2019 01 088_\mTe]=+y^Dhm!%clickj5p\+5pUCGPP_H6u))B@FM@*qbwMAAMF51
     P10Lezz |C2019 01 09qJZ!!sI7HtQH;Ru5\Gw4Ns/UO!?7(RbRgc-:fx=lsHnhD#7kT%?M807
     P10Lezz |C2019 01 09K0XAMe[9dx`7!.%!R\8Cjq,kOO^w!^here-Y%ZD;MbmgynvXJN:L807
     P10Lezz |C2019 01 09RIr)J06)jJ(_wj,ejU;H%i=AoU8YOKeSwn#.*aR.ik+3wJWRe1/w807
     P10Lezz |C2019 01 12lBwEfor?k'OcY],$B@VGQ.2W@u.MTa5Js'lp2;)9jFM'-QJMaqXp807
     P10Lezz |C2019 01 12g`,kY4^*npEwcjD6KQBOX)F6S^wK%:l?!]xiA(]kN[/rYyCdAsv%807
     P10Lezz |C2019 01 12\L$NkYfCHaL,STgbaId]v:p(explanation[MlyKFD*fBSNn_[w\807

Station data:
(807) Cerro Tololo Observatory, La Serena  (S30.169136 W70.805900)  Chile.
   1.5-m Ritchey-Chrétien.
(F51) Pan-STARRS 1, Haleakala  (N20.707235 W156.255910)  US/Hawaii.
   Observers N. Primak, A. Schultz, S. Watters, J. Thiel, T. Goggia. Measurer
   PS1 Science Consortium. 1.8-m Ritchey-Chrétien + CCD.

Orbital elements:  P10Lezz
   Perihelion 2018 Mar 3.795305 +/- 59.3 TT = 19:05:14 (JD 2458181.295305)
Epoch 2019 Jan 12.0 TT = JDT 2458495.5   Earth MOID: 0.9505   AutoNEOCP
M  69.70789893 +/- 26               (J2000 ecliptic)
n   0.22185505 +/- 0.0353           Peri.  240.44430 +/- 16
a   2.70244274 +/- 0.286            Node   169.36478 +/- 0.49
e   0.3306895 +/- 0.0599            Incl.   33.06292 +/- 1.2
P   4.44                   H 17.5   G  0.15   U 10.5  
q 1.80877316 +/- 0.0432    Q 3.59611231 +/- 0.502
From 10 observations 2019 Jan. 8-12; mean residual 0".11
Residuals in arcseconds: 
190108 F51  .05+  .03+    190109 807  .09+  .01-    190112 807  .13+  .12+    
190108 F51  .12+  .07-    190109 807  .06-  .08-    190112 807  .04-  .11+    
190108 F51  .04+  .05-    190109 807  .03-  .09+    
190108 F51  .23-  .08+    190112 807  .09-  .23-    

Ephemerides (geocentric):
Date (UTC) HH   RA              Dec         delta   r     elong  mag " sig PA
---- -- -- --  -------------   -----------  ------ ------ -----  --- ---- ---
2019 01 13 15  11 46 53.908   -06 52 33.14  2.1468 2.6870 112.9 22.3 1.09 133
2019 01 13 16  11 46 54.223   -06 52 19.24  2.1464 2.6871 113.0 22.3 1.14 133
2019 01 13 17  11 46 54.534   -06 52 05.31  2.1459 2.6873 113.0 22.3 1.18 133
2019 01 13 18  11 46 54.843   -06 51 51.36  2.1455 2.6874 113.0 22.3 1.23 133
2019 01 13 19  11 46 55.150   -06 51 37.38  2.1451 2.6876 113.1 22.3 1.27 133
2019 01 13 20  11 46 55.453   -06 51 23.37  2.1447 2.6877 113.1 22.3 1.32 133
2019 01 13 21  11 46 55.755   -06 51 09.34  2.1443 2.6879 113.2 22.3 1.37 133
2019 01 13 22  11 46 56.053   -06 50 55.29  2.1439 2.6880 113.2 22.3 1.42 133
2019 01 13 23  11 46 56.350   -06 50 41.20  2.1434 2.6882 113.3 22.3 1.46 133
2019 01 14 00  11 46 56.643   -06 50 27.10  2.1430 2.6883 113.3 22.3 1.51 133
2019 01 14 01  11 46 56.934   -06 50 12.96  2.1426 2.6885 113.3 22.3 1.56 133
2019 01 14 02  11 46 57.223   -06 49 58.80  2.1422 2.6886 113.4 22.3 1.62 133
2019 01 14 03  11 46 57.509   -06 49 44.62  2.1418 2.6887 113.4 22.3 1.67 134
2019 01 14 04  11 46 57.792   -06 49 30.41  2.1414 2.6889 113.5 22.3 1.72 134
2019 01 14 05  11 46 58.073   -06 49 16.17  2.1409 2.6890 113.5 22.3 1.77 134
2019 01 14 06  11 46 58.352   -06 49 01.91  2.1405 2.6892 113.6 22.3 1.83 134
2019 01 14 07  11 46 58.627   -06 48 47.62  2.1401 2.6893 113.6 22.3 1.88 134
2019 01 14 08  11 46 58.901   -06 48 33.30  2.1397 2.6895 113.6 22.3 1.94 134
2019 01 14 09  11 46 59.171   -06 48 18.96  2.1393 2.6896 113.7 22.3 1.99 134
2019 01 14 10  11 46 59.439   -06 48 04.60  2.1389 2.6898 113.7 22.3 2.05 134
2019 01 14 11  11 46 59.705   -06 47 50.21  2.1384 2.6899 113.8 22.3 2.10 134
2019 01 14 12  11 46 59.968   -06 47 35.79  2.1380 2.6900 113.8 22.3 2.16 134
2019 01 14 13  11 47 00.228   -06 47 21.35  2.1376 2.6902 113.9 22.3 2.22 134
2019 01 14 14  11 47 00.486   -06 47 06.88  2.1372 2.6903 113.9 22.3 2.28 134
2019 01 14 15  11 47 00.741   -06 46 52.38  2.1368 2.6905 113.9 22.3 2.34 134
2019 01 14 16  11 47 00.994   -06 46 37.86  2.1364 2.6906 114.0 22.3 2.40 134
2019 01 14 17  11 47 01.244   -06 46 23.31  2.1359 2.6908 114.0 22.3 2.46 134
2019 01 14 18  11 47 01.491   -06 46 08.74  2.1355 2.6909 114.1 22.3 2.52 134
2019 01 14 19  11 47 01.736   -06 45 54.14  2.1351 2.6911 114.1 22.3 2.58 134
2019 01 14 20  11 47 01.979   -06 45 39.52  2.1347 2.6912 114.2 22.3 2.65 134
2019 01 14 21  11 47 02.219   -06 45 24.87  2.1343 2.6914 114.2 22.3 2.71 134
2019 01 14 22  11 47 02.456   -06 45 10.19  2.1339 2.6915 114.2 22.3 2.78 134
2019 01 14 23  11 47 02.691   -06 44 55.49  2.1335 2.6916 114.3 22.3 2.84 134
2019 01 15 00  11 47 02.923   -06 44 40.76  2.1330 2.6918 114.3 22.3 2.91 134
2019 01 15 01  11 47 03.153   -06 44 26.01  2.1326 2.6919 114.4 22.3 2.97 134
2019 01 15 02  11 47 03.380   -06 44 11.23  2.1322 2.6921 114.4 22.3 3.04 134
2019 01 15 03  11 47 03.604   -06 43 56.42  2.1318 2.6922 114.5 22.3 3.11 134
2019 01 15 04  11 47 03.826   -06 43 41.59  2.1314 2.6924 114.5 22.3 3.18 134
2019 01 15 05  11 47 04.045   -06 43 26.73  2.1310 2.6925 114.5 22.3 3.25 134
2019 01 15 06  11 47 04.262   -06 43 11.85  2.1306 2.6927 114.6 22.3 3.32 134
2019 01 15 07  11 47 04.476   -06 42 56.94  2.1302 2.6928 114.6 22.3 3.39 134
2019 01 15 08  11 47 04.688   -06 42 42.01  2.1297 2.6929 114.7 22.3 3.46 134
2019 01 15 09  11 47 04.897   -06 42 27.04  2.1293 2.6931 114.7 22.3 3.53 134
2019 01 15 10  11 47 05.104   -06 42 12.06  2.1289 2.6932 114.8 22.3 3.60 134
2019 01 15 11  11 47 05.308   -06 41 57.04  2.1285 2.6934 114.8 22.3 3.68 134
2019 01 15 12  11 47 05.509   -06 41 42.00  2.1281 2.6935 114.8 22.3 3.75 134
2019 01 15 13  11 47 05.708   -06 41 26.94  2.1277 2.6937 114.9 22.3 3.83 134
2019 01 15 14  11 47 05.904   -06 41 11.85  2.1273 2.6938 114.9 22.3 3.90 134